This is the latest recevied weather packets stored in our database for station/object KC3ROS. If no packets are shown the sender has not sent any weather packets the latest 1 day(s).
| Time | Temp. | Humidity | Pressure | Rain* | Wind** | Luminosity | Snow |
|---|---|---|---|---|---|---|---|
| 1777977663 | 16.11° C | 74% | 1006.8 hPa | 0 mm | 0.89 m/s, 179° | 10 W/m² | - |
| 1777977359 | 16.67° C | 73% | 1006.6 hPa | 0 mm | 0.45 m/s, 189° | 7 W/m² | - |
| 1777977056 | 16.67° C | 73% | 1006.5 hPa | 0 mm | 0.89 m/s, 190° | 5 W/m² | - |
| 1777976754 | 16.67° C | 73% | 1006.3 hPa | 0 mm | 1.34 m/s, 208° | 4 W/m² | - |
| 1777976451 | 16.67° C | 73% | 1006.6 hPa | 0 mm | 1.34 m/s, 209° | 3 W/m² | - |
| 1777976150 | 16.67° C | 73% | 1006.3 hPa | 0 mm | 3.13 m/s, 224° | 2 W/m² | - |
| 1777975846 | 16.67° C | 72% | 1006.3 hPa | 0 mm | 0 m/s | 1 W/m² | - |
| 1777975542 | 16.67° C | 73% | 1006.3 hPa | 0 mm | 2.68 m/s, 218° | 0 W/m² | - |
| 1777975239 | 16.67° C | 72% | 1006.3 hPa | 0 mm | 2.68 m/s, 226° | 0 W/m² | - |
| 1777974935 | 16.67° C | 72% | 1006.3 hPa | 0 mm | 1.79 m/s, 178° | 0 W/m² | - |
| 1777974632 | 16.67° C | 73% | 1006.2 hPa | 0 mm | 0.45 m/s, 184° | 0 W/m² | - |
| 1777974328 | 16.67° C | 73% | 1005.9 hPa | 0 mm | 0.89 m/s, 192° | 0 W/m² | - |
| 1777974025 | 16.67° C | 74% | 1005.8 hPa | 0 mm | 0 m/s | 0 W/m² | - |
| 1777973721 | 16.67° C | 73% | 1006 hPa | 0 mm | 1.79 m/s, 195° | 0 W/m² | - |
| 1777973419 | 16.11° C | 74% | 1005.9 hPa | 0 mm | 1.79 m/s, 248° | 0 W/m² | - |
| 1777973116 | 16.11° C | 74% | 1005.9 hPa | 0 mm | 1.34 m/s, 208° | 0 W/m² | - |
| 1777972814 | 16.11° C | 74% | 1005.8 hPa | 0 mm | 0.45 m/s, 147° | 0 W/m² | - |
| 1777972511 | 16.11° C | 74% | 1005.9 hPa | 0 mm | 0.45 m/s, 112° | 0 W/m² | - |
| 1777972209 | 16.11° C | 74% | 1005.8 hPa | 0 mm | 1.34 m/s, 218° | 0 W/m² | - |
| 1777971907 | 16.11° C | 75% | 1005.8 hPa | 0 mm | 0.45 m/s, 325° | 0 W/m² | - |
| 1777971604 | 16.11° C | 75% | 1005.9 hPa | 0 mm | 0.89 m/s, 196° | 0 W/m² | - |
| 1777971302 | 16.11° C | 75% | 1006 hPa | 0 mm | 1.34 m/s, 159° | 0 W/m² | - |
| 1777971000 | 16.11° C | 76% | 1006.1 hPa | 0 mm | 0.89 m/s, 235° | 0 W/m² | - |
| 1777970698 | 16.11° C | 76% | 1005.9 hPa | 0 mm | 0.89 m/s, 263° | 0 W/m² | - |
| 1777970396 | 16.11° C | 76% | 1005.8 hPa | 0 mm | 0.89 m/s, 226° | 0 W/m² | - |
* Rain latest hour (hover to see other rain measurements)
** Current wind speed in m/s (hover to see current wind gust speed)